OK1MNP-5 Weather Reports


time (UTC)temp
F
wind
direction
speed
knots
gust
knots
rain 1hr
in
rain 24hr
in
rain mn
in
humidity
%
barometer
mb
20260502214052 0 0 0.0 0.0 0.00 0.00 0.00 1016.3
20260502213305 0 0 0.0 0.0 0.00 0.00 0.00 1016.3
20260502212517 0 0 0.0 0.0 0.00 0.00 0.00 1016.3
20260502211729 0 0 0.0 0.0 0.00 0.00 0.00 1016.3
20260502210154 0 0 0.0 0.0 0.00 0.00 0.00 1016.4
20260502205402 0 0 0.0 0.0 0.00 0.00 0.00 1016.5
20260502204610 0 0 0.0 0.0 0.00 0.00 0.00 1016.7
20260502203822 0 0 0.0 0.0 0.00 0.00 0.00 1016.6
20260502203036 0 0 0.0 0.0 0.00 0.00 0.00 1016.4
20260502202249 0 0 0.0 0.0 0.00 0.00 0.00 1016.4
20260502201501 0 0 0.0 0.0 0.00 0.00 0.00 1016.4
20260502200711 0 0 0.0 0.0 0.00 0.00 0.00 1016.4
20260502195924 0 0 0.0 0.0 0.00 0.00 0.00 1016.4
20260502195135 0 0 0.0 0.0 0.00 0.00 0.00 1016.3
20260502194347 0 0 0.0 0.0 0.00 0.00 0.00 1016.3
20260502193559 0 0 0.0 0.0 0.00 0.00 0.00 1016.2
20260502192811 0 0 0.0 0.0 0.00 0.00 0.00 1016.2
20260502192025 0 0 0.0 0.0 0.00 0.00 0.00 1016.1
20260502191229 0 0 0.0 0.0 0.00 0.00 0.00 1016.1
20260502190442 0 0 0.0 0.0 0.00 0.00 0.00 1016.0
20260502185653 0 0 0.0 0.0 0.00 0.00 0.00 1015.9
20260502184905 0 0 0.0 0.0 0.00 0.00 0.00 1015.8
20260502184111 0 0 0.0 0.0 0.00 0.00 0.00 1015.7
20260502183324 0 0 0.0 0.0 0.00 0.00 0.00 1015.6
20260502182531 0 0 0.0 0.0 0.00 0.00 0.00 1015.5
20260502181743 0 0 0.0 0.0 0.00 0.00 0.00 1015.5
20260502180956 0 0 0.0 0.0 0.00 0.00 0.00 1015.4
20260502180208 0 0 0.0 0.0 0.00 0.00 0.00 1015.4
20260502163620 0 0 0.0 0.0 0.00 0.00 0.00 1015.4
20260502162833 0 0 0.0 0.0 0.00 0.00 0.00 1015.6
20260502162045 0 0 0.0 0.0 0.00 0.00 0.00 1015.6
20260502161259 0 0 0.0 0.0 0.00 0.00 0.00 1015.8
20260502160511 0 0 0.0 0.0 0.00 0.00 0.00 1015.9
20260502151828 0 0 0.0 0.0 0.00 0.00 0.00 1016.3
20260502151041 0 0 0.0 0.0 0.00 0.00 0.00 1016.4
20260502150253 0 0 0.0 0.0 0.00 0.00 0.00 1016.5
20260502130553 0 0 0.0 0.0 0.00 0.00 0.00 1017.8
20260502123444 0 0 0.0 0.0 0.00 0.00 0.00 1018.2
20260502122656 0 0 0.0 0.0 0.00 0.00 0.00 1018.2
20260502121909 0 0 0.0 0.0 0.00 0.00 0.00 1018.3
20260502121122 0 0 0.0 0.0 0.00 0.00 0.00 1018.4
20260502120333 0 0 0.0 0.0 0.00 0.00 0.00 1018.6
20260502115545 0 0 0.0 0.0 0.00 0.00 0.00 1018.7
20260502114758 0 0 0.0 0.0 0.00 0.00 0.00 1018.8
20260502114007 0 0 0.0 0.0 0.00 0.00 0.00 1018.9
20260502113218 0 0 0.0 0.0 0.00 0.00 0.00 1019.0
20260502112431 0 0 0.0 0.0 0.00 0.00 0.00 1019.0
20260502111643 0 0 0.0 0.0 0.00 0.00 0.00 1019.2
20260502110855 0 0 0.0 0.0 0.00 0.00 0.00 1019.4
20260502110108 0 0 0.0 0.0 0.00 0.00 0.00 1019.4
20260502105320 0 0 0.0 0.0 0.00 0.00 0.00 1019.5
20260502104528 0 0 0.0 0.0 0.00 0.00 0.00 1019.6
20260502103741 0 0 0.0 0.0 0.00 0.00 0.00 1019.6
20260502102953 0 0 0.0 0.0 0.00 0.00 0.00 1019.7
20260502102206 0 0 0.0 0.0 0.00 0.00 0.00 1019.6
20260502101419 0 0 0.0 0.0 0.00 0.00 0.00 1019.8
20260502100632 0 0 0.0 0.0 0.00 0.00 0.00 1019.4
20260502091158 146 0 0.0 0.0 0.00 0.00 0.00 1016.9
20260502090411 145 0 0.0 0.0 0.00 0.00 0.00 1017.1
20260502071501 118 0 0.0 0.0 0.00 0.00 0.00 1019.0
20260502070713 111 0 0.0 0.0 0.00 0.00 0.00 1019.3
20260502065927 116 0 0.0 0.0 0.00 0.00 0.00 1019.0
20260502065137 112 0 0.0 0.0 0.00 0.00 0.00 1019.3
20260502064342 109 0 0.0 0.0 0.00 0.00 0.00 1019.5
20260502063554 102 0 0.0 0.0 0.00 0.00 0.00 1019.9
20260502062807 0 0 0.0 0.0 0.00 0.00 0.00 1020.2
20260502062019 105 0 0.0 0.0 0.00 0.00 0.00 1019.8
20260502061229 102 0 0.0 0.0 0.00 0.00 0.00 1019.9
20260502060441 0 0 0.0 0.0 0.00 0.00 0.00 1020.2
20260502055653 0 0 0.0 0.0 0.00 0.00 0.00 1020.2
20260502054905 0 0 0.0 0.0 0.00 0.00 0.00 1020.5
20260502054114 0 0 0.0 0.0 0.00 0.00 0.00 1020.9
20260502053326 0 0 0.0 0.0 0.00 0.00 0.00 1020.8
20260502052539 0 0 0.0 0.0 0.00 0.00 0.00 1021.0
20260502051747 0 0 0.0 0.0 0.00 0.00 0.00 1021.2
20260502051000 0 0 0.0 0.0 0.00 0.00 0.00 1021.4
20260502050213 0 0 0.0 0.0 0.00 0.00 0.00 1021.6
20260502045425 0 0 0.0 0.0 0.00 0.00 0.00 1021.7
20260502044638 0 0 0.0 0.0 0.00 0.00 0.00 1021.9
20260502043848 0 0 0.0 0.0 0.00 0.00 0.00 1022.3
20260502043101 0 0 0.0 0.0 0.00 0.00 0.00 1023.3
20260502042313 0 0 0.0 0.0 0.00 0.00 0.00 1023.6
20260502041526 0 0 0.0 0.0 0.00 0.00 0.00 1023.5
20260502040739 0 0 0.0 0.0 0.00 0.00 0.00 1023.5
20260502035948 0 0 0.0 0.0 0.00 0.00 0.00 1023.5
20260502035201 0 0 0.0 0.0 0.00 0.00 0.00 1023.5
20260502034412 0 0 0.0 0.0 0.00 0.00 0.00 1023.6
20260502033624 0 0 0.0 0.0 0.00 0.00 0.00 1023.6
20260502032837 0 0 0.0 0.0 0.00 0.00 0.00 1023.6
20260502032050 0 0 0.0 0.0 0.00 0.00 0.00 1023.5
20260502031303 0 0 0.0 0.0 0.00 0.00 0.00 1023.4
20260502030515 0 0 0.0 0.0 0.00 0.00 0.00 1023.4
20260502025728 0 0 0.0 0.0 0.00 0.00 0.00 1023.4
20260502024940 0 0 0.0 0.0 0.00 0.00 0.00 1023.5
20260502024148 0 0 0.0 0.0 0.00 0.00 0.00 1023.5
20260502023400 0 0 0.0 0.0 0.00 0.00 0.00 1023.5
20260502022612 0 0 0.0 0.0 0.00 0.00 0.00 1023.5
20260502021825 0 0 0.0 0.0 0.00 0.00 0.00 1023.5
20260502021037 0 0 0.0 0.0 0.00 0.00 0.00 1023.5
20260502020250 0 0 0.0 0.0 0.00 0.00 0.00 1023.5
20260502015503 0 0 0.0 0.0 0.00 0.00 0.00 1023.5
20260502014715 0 0 0.0 0.0 0.00 0.00 0.00 1023.6
20260502013928 0 0 0.0 0.0 0.00 0.00 0.00 1023.5
20260502013140 0 0 0.0 0.0 0.00 0.00 0.00 1023.5
20260502012353 0 0 0.0 0.0 0.00 0.00 0.00 1023.5
20260502011606 0 0 0.0 0.0 0.00 0.00 0.00 1023.6
20260502010819 0 0 0.0 0.0 0.00 0.00 0.00 1023.6
20260502010031 0 0 0.0 0.0 0.00 0.00 0.00 1023.7
20260502005244 0 0 0.0 0.0 0.00 0.00 0.00 1023.7
20260502004447 0 0 0.0 0.0 0.00 0.00 0.00 1023.6
20260502003701 0 0 0.0 0.0 0.00 0.00 0.00 1023.5
20260502002911 0 0 0.0 0.0 0.00 0.00 0.00 1023.6
20260502002124 0 0 0.0 0.0 0.00 0.00 0.00 1023.5
20260502001337 0 0 0.0 0.0 0.00 0.00 0.00 1023.5
20260502000550 0 0 0.0 0.0 0.00 0.00 0.00 1023.5
20260501235802 0 0 0.0 0.0 0.00 0.00 0.00 1023.6
20260501235015 0 0 0.0 0.0 0.00 0.00 0.00 1023.5
20260501234228 0 0 0.0 0.0 0.00 0.00 0.00 1023.5
20260501233440 0 0 0.0 0.0 0.00 0.00 0.00 1023.6
20260501232653 0 0 0.0 0.0 0.00 0.00 0.00 1023.7
20260501231906 0 0 0.0 0.0 0.00 0.00 0.00 1023.7
20260501231114 0 0 0.0 0.0 0.00 0.00 0.00 1023.8
20260501230327 0 0 0.0 0.0 0.00 0.00 0.00 1023.8
20260501225540 0 0 0.0 0.0 0.00 0.00 0.00 1023.8
20260501224752 0 0 0.0 0.0 0.00 0.00 0.00 1023.8
20260501224004 0 0 0.0 0.0 0.00 0.00 0.00 1023.8
20260501223216 0 0 0.0 0.0 0.00 0.00 0.00 1023.7
20260501222428 0 0 0.0 0.0 0.00 0.00 0.00 1023.7
20260501221641 0 0 0.0 0.0 0.00 0.00 0.00 1023.7
20260501220853 0 0 0.0 0.0 0.00 0.00 0.00 1023.8
20260501220104 0 0 0.0 0.0 0.00 0.00 0.00 1023.8
20260501215314 0 0 0.0 0.0 0.00 0.00 0.00 1023.8